contact:dominique.lefevre@mio.osupytheas.fr, maurice.libes@osupytheas.fr, didier.mallarino@osupytheas.fr
Project:EMSO http://www.emso-fr.org/EMSO-France
Depth: 2436.0 m
Title:EMSO Ligure Ouest : Data MII capteur MICROCAT
DateTime_Computer,Latitude,Longitude,Temperature,Conductivity,Pressure,DateTime_Instrument
DateTime_Computer,Latitude,Longitude,degC,S m-1,dbar,DateTime_Instrument
2022-10-14T00:03:00Z,42.805,6.029,13.3024,4.60070,2470.6,2022-10-14T02:04:55Z
2022-10-14T00:06:03Z,42.805,6.029,13.3028,4.60088,2470.6,2022-10-14T02:07:58Z
2022-10-14T00:09:06Z,42.805,6.029,13.3021,4.60080,2470.577,2022-10-14T02:11:01Z
2022-10-14T00:12:09Z,42.805,6.029,13.3022,4.60076,2470.6,2022-10-14T02:14:04Z
2022-10-14T00:15:13Z,42.805,6.029,13.3016,4.60078,2470.6,2022-10-14T02:17:08Z
2022-10-14T00:18:16Z,42.805,6.029,13.3031,4.60104,2470.567,2022-10-14T02:20:11Z
2022-10-14T00:21:19Z,42.805,6.029,13.3030,4.60101,2470.614,2022-10-14T02:23:14Z
2022-10-14T00:24:22Z,42.805,6.029,13.3019,4.60084,2470.624,2022-10-14T02:26:17Z
2022-10-14T00:27:25Z,42.805,6.029,13.3024,4.60091,2470.591,2022-10-14T02:29:20Z
2022-10-14T00:30:28Z,42.805,6.029,13.3026,4.60087,2470.591,2022-10-14T02:32:23Z
2022-10-14T00:33:31Z,42.805,6.029,13.3033,4.60113,2470.553,2022-10-14T02:35:26Z
2022-10-14T00:36:34Z,42.805,6.029,13.3027,4.60111,2470.577,2022-10-14T02:38:29Z
2022-10-14T00:39:37Z,42.805,6.029,13.3032,4.60090,2470.577,2022-10-14T02:41:32Z
2022-10-14T00:42:40Z,42.805,6.029,13.3019,4.60079,2470.577,2022-10-14T02:44:35Z
2022-10-14T00:45:43Z,42.805,6.029,13.3021,4.60082,2470.591,2022-10-14T02:47:38Z
2022-10-14T00:48:46Z,42.805,6.029,13.3026,4.60099,2470.53,2022-10-14T02:50:41Z
2022-10-14T00:51:49Z,42.805,6.029,13.3043,4.60103,2470.544,2022-10-14T02:53:44Z
2022-10-14T00:54:53Z,42.805,6.029,13.3024,4.60102,2470.577,2022-10-14T02:56:48Z
2022-10-14T00:57:56Z,42.805,6.029,13.3026,4.60092,2470.567,2022-10-14T02:59:51Z
2022-10-14T01:00:59Z,42.805,6.029,13.3025,4.60092,2470.567,2022-10-14T03:02:54Z
2022-10-14T01:04:02Z,42.805,6.029,13.3037,4.60093,2470.567,2022-10-14T03:05:57Z
2022-10-14T01:07:05Z,42.805,6.029,13.3034,4.60110,2470.553,2022-10-14T03:09:00Z
2022-10-14T01:10:08Z,42.805,6.029,13.3041,4.60100,2470.544,2022-10-14T03:12:03Z
2022-10-14T01:13:11Z,42.805,6.029,13.3043,4.60102,2470.567,2022-10-14T03:15:06Z
2022-10-14T01:16:14Z,42.805,6.029,13.3038,4.60096,2470.591,2022-10-14T03:18:09Z
2022-10-14T01:19:17Z,42.805,6.029,13.3040,4.60109,2470.567,2022-10-14T03:21:12Z
2022-10-14T01:22:20Z,42.805,6.029,13.3036,4.60090,2470.567,2022-10-14T03:24:15Z
2022-10-14T01:25:23Z,42.805,6.029,13.3019,4.60077,2470.553,2022-10-14T03:27:18Z
2022-10-14T01:28:26Z,42.805,6.029,13.3020,4.60075,2470.553,2022-10-14T03:30:21Z
2022-10-14T01:31:29Z,42.805,6.029,13.3018,4.60080,2470.53,2022-10-14T03:33:24Z
2022-10-14T01:34:33Z,42.805,6.029,13.3027,4.60096,2470.544,2022-10-14T03:36:28Z
2022-10-14T01:37:36Z,42.805,6.029,13.3032,4.60101,2470.567,2022-10-14T03:39:31Z
2022-10-14T01:40:39Z,42.805,6.029,13.3041,4.60101,2470.544,2022-10-14T03:42:34Z
2022-10-14T01:43:42Z,42.805,6.029,13.3034,4.60099,2470.53,2022-10-14T03:45:37Z
2022-10-14T01:46:45Z,42.805,6.029,13.3031,4.60109,2470.544,2022-10-14T03:48:40Z
2022-10-14T01:49:48Z,42.805,6.029,13.3027,4.60098,2470.567,2022-10-14T03:51:43Z
2022-10-14T01:52:51Z,42.805,6.029,13.3041,4.60113,2470.544,2022-10-14T03:54:46Z
2022-10-14T01:55:54Z,42.805,6.029,13.3029,4.60107,2470.544,2022-10-14T03:57:49Z
2022-10-14T01:58:57Z,42.805,6.029,13.3024,4.60104,2470.544,2022-10-14T04:00:52Z
2022-10-14T02:02:00Z,42.805,6.029,13.3021,4.60090,2470.52,2022-10-14T04:03:55Z
2022-10-14T02:05:03Z,42.805,6.029,13.3040,4.60114,2470.53,2022-10-14T04:06:58Z
2022-10-14T02:08:06Z,42.805,6.029,13.3042,4.60132,2470.53,2022-10-14T04:10:01Z
2022-10-14T02:11:10Z,42.805,6.029,13.3046,4.60125,2470.507,2022-10-14T04:13:05Z
2022-10-14T02:14:13Z,42.805,6.029,13.3029,4.60131,2470.544,2022-10-14T04:16:08Z
2022-10-14T02:17:16Z,42.805,6.029,13.3050,4.60086,2470.507,2022-10-14T04:19:11Z
2022-10-14T02:20:19Z,42.805,6.029,13.3032,4.60123,2470.507,2022-10-14T04:22:14Z
2022-10-14T02:23:22Z,42.805,6.029,13.3043,4.60129,2470.483,2022-10-14T04:25:17Z
2022-10-14T02:26:25Z,42.805,6.029,13.3045,4.60149,2470.52,2022-10-14T04:28:20Z
2022-10-14T02:29:28Z,42.805,6.029,13.3026,4.60119,2470.52,2022-10-14T04:31:23Z
2022-10-14T02:32:31Z,42.805,6.029,13.3043,4.60128,2470.53,2022-10-14T04:34:26Z
2022-10-14T02:35:34Z,42.805,6.029,13.3043,4.60156,2470.483,2022-10-14T04:37:29Z
2022-10-14T02:38:37Z,42.805,6.029,13.3041,4.60117,2470.52,2022-10-14T04:40:32Z
2022-10-14T02:41:40Z,42.805,6.029,13.3049,4.60117,2470.53,2022-10-14T04:43:35Z
2022-10-14T02:44:43Z,42.805,6.029,13.3032,4.60110,2470.507,2022-10-14T04:46:38Z
2022-10-14T02:47:46Z,42.805,6.029,13.3053,4.60122,2470.52,2022-10-14T04:49:41Z
2022-10-14T02:50:50Z,42.805,6.029,13.3058,4.60114,2470.493,2022-10-14T04:52:45Z
2022-10-14T02:53:53Z,42.805,6.029,13.3054,4.60132,2470.493,2022-10-14T04:55:48Z
2022-10-14T02:56:56Z,42.805,6.029,13.3054,4.60142,2470.483,2022-10-14T04:58:51Z
2022-10-14T02:59:59Z,42.805,6.029,13.3024,4.60108,2470.507,2022-10-14T05:01:54Z
2022-10-14T03:03:02Z,42.805,6.029,13.3034,4.60110,2470.497,2022-10-14T05:04:57Z
2022-10-14T03:06:05Z,42.805,6.029,13.3034,4.60119,2470.52,2022-10-14T05:08:00Z
2022-10-14T03:09:08Z,42.805,6.029,13.3058,4.60117,2470.507,2022-10-14T05:11:03Z
2022-10-14T03:12:11Z,42.805,6.029,13.3036,4.60116,2470.507,2022-10-14T05:14:06Z
2022-10-14T03:15:14Z,42.805,6.029,13.3030,4.60126,2470.53,2022-10-14T05:17:09Z
2022-10-14T03:18:17Z,42.805,6.029,13.3032,4.60130,2470.483,2022-10-14T05:20:12Z
2022-10-14T03:21:20Z,42.805,6.029,13.3039,4.60116,2470.53,2022-10-14T05:23:15Z
2022-10-14T03:24:23Z,42.805,6.029,13.3044,4.60102,2470.507,2022-10-14T05:26:18Z
2022-10-14T03:27:26Z,42.805,6.029,13.3058,4.60115,2470.507,2022-10-14T05:29:22Z
2022-10-14T03:30:30Z,42.805,6.029,13.3042,4.60110,2470.52,2022-10-14T05:32:25Z
2022-10-14T03:33:33Z,42.805,6.029,13.3044,4.60120,2470.52,2022-10-14T05:35:28Z
2022-10-14T03:36:36Z,42.805,6.029,13.3039,4.60148,2470.544,2022-10-14T05:38:31Z
2022-10-14T03:39:39Z,42.805,6.029,13.3037,4.60120,2470.497,2022-10-14T05:41:34Z
2022-10-14T03:42:42Z,42.805,6.029,13.3036,4.60125,2470.52,2022-10-14T05:44:37Z
2022-10-14T03:45:45Z,42.805,6.029,13.3043,4.60110,2470.507,2022-10-14T05:47:40Z
2022-10-14T03:48:48Z,42.805,6.029,13.3046,4.60110,2470.507,2022-10-14T05:50:43Z
2022-10-14T03:51:51Z,42.805,6.029,13.3025,4.60094,2470.544,2022-10-14T05:53:46Z
2022-10-14T03:54:54Z,42.805,6.029,13.3041,4.60116,2470.483,2022-10-14T05:56:49Z
2022-10-14T03:57:57Z,42.805,6.029,13.3060,4.60101,2470.52,2022-10-14T05:59:52Z
2022-10-14T04:01:00Z,42.805,6.029,13.3043,4.60128,2470.507,2022-10-14T06:02:55Z
2022-10-14T04:04:03Z,42.805,6.029,13.3033,4.60127,2470.52,2022-10-14T06:05:58Z
2022-10-14T04:07:06Z,42.805,6.029,13.3041,4.60124,2470.497,2022-10-14T06:09:02Z
2022-10-14T04:10:10Z,42.805,6.029,13.3061,4.60096,2470.507,2022-10-14T06:12:05Z
2022-10-14T04:13:13Z,42.805,6.029,13.3031,4.60116,2470.507,2022-10-14T06:15:08Z
2022-10-14T04:16:16Z,42.805,6.029,13.3068,4.60119,2470.52,2022-10-14T06:18:11Z
2022-10-14T04:19:19Z,42.805,6.029,13.3016,4.60116,2470.507,2022-10-14T06:21:14Z
2022-10-14T04:22:22Z,42.805,6.029,13.3030,4.60081,2470.497,2022-10-14T06:24:17Z
2022-10-14T04:25:25Z,42.805,6.029,13.3028,4.60093,2470.507,2022-10-14T06:27:20Z
2022-10-14T04:28:28Z,42.805,6.029,13.3041,4.60097,2470.52,2022-10-14T06:30:23Z
2022-10-14T04:31:31Z,42.805,6.029,13.3034,4.60117,2470.507,2022-10-14T06:33:26Z
2022-10-14T04:34:34Z,42.805,6.029,13.3051,4.60109,2470.483,2022-10-14T06:36:29Z
2022-10-14T04:37:37Z,42.805,6.029,13.3052,4.60121,2470.483,2022-10-14T06:39:32Z
2022-10-14T04:40:40Z,42.805,6.029,13.3046,4.60104,2470.507,2022-10-14T06:42:35Z
2022-10-14T04:43:43Z,42.805,6.029,13.3058,4.60127,2470.483,2022-10-14T06:45:38Z
2022-10-14T04:46:46Z,42.805,6.029,13.3026,4.60124,2470.52,2022-10-14T06:48:42Z
2022-10-14T04:49:50Z,42.805,6.029,13.3047,4.60137,2470.52,2022-10-14T06:51:45Z
2022-10-14T04:52:53Z,42.805,6.029,13.3036,4.60107,2470.553,2022-10-14T06:54:48Z
2022-10-14T04:55:56Z,42.805,6.029,13.3024,4.60137,2470.507,2022-10-14T06:57:51Z
2022-10-14T04:58:59Z,42.805,6.029,13.3029,4.60119,2470.483,2022-10-14T07:00:54Z
2022-10-14T05:02:02Z,42.805,6.029,13.3037,4.60119,2470.52,2022-10-14T07:03:57Z
2022-10-14T05:05:05Z,42.805,6.029,13.3036,4.60134,2470.52,2022-10-14T07:07:00Z
2022-10-14T05:08:08Z,42.805,6.029,13.3021,4.60125,2470.52,2022-10-14T07:10:03Z
2022-10-14T05:11:11Z,42.805,6.029,13.3033,4.60122,2470.544,2022-10-14T07:13:06Z
2022-10-14T05:14:14Z,42.805,6.029,13.3015,4.60092,2470.507,2022-10-14T07:16:09Z
2022-10-14T05:17:17Z,42.805,6.029,13.3026,4.60080,2470.544,2022-10-14T07:19:12Z
2022-10-14T05:20:20Z,42.805,6.029,13.3029,4.60087,2470.52,2022-10-14T07:22:15Z
2022-10-14T05:23:23Z,42.805,6.029,13.3029,4.60110,2470.53,2022-10-14T07:25:18Z
2022-10-14T05:26:27Z,42.805,6.029,13.3024,4.60129,2470.507,2022-10-14T07:28:22Z
2022-10-14T05:29:30Z,42.805,6.029,13.3029,4.60092,2470.507,2022-10-14T07:31:25Z
2022-10-14T05:32:33Z,42.805,6.029,13.3038,4.60127,2470.53,2022-10-14T07:34:28Z
2022-10-14T05:35:36Z,42.805,6.029,13.3049,4.60117,2470.567,2022-10-14T07:37:31Z
2022-10-14T05:38:39Z,42.805,6.029,13.3042,4.60112,2470.53,2022-10-14T07:40:34Z
2022-10-14T05:41:42Z,42.805,6.029,13.3049,4.60113,2470.553,2022-10-14T07:43:37Z
2022-10-14T05:44:45Z,42.805,6.029,13.3043,4.60131,2470.52,2022-10-14T07:46:40Z
2022-10-14T05:47:48Z,42.805,6.029,13.3043,4.60109,2470.507,2022-10-14T07:49:43Z
2022-10-14T05:50:51Z,42.805,6.029,13.3048,4.60117,2470.553,2022-10-14T07:52:46Z
2022-10-14T05:53:54Z,42.805,6.029,13.3034,4.60102,2470.53,2022-10-14T07:55:49Z
2022-10-14T05:56:57Z,42.805,6.029,13.3046,4.60113,2470.544,2022-10-14T07:58:52Z
2022-10-14T06:00:00Z,42.805,6.029,13.3023,4.60117,2470.567,2022-10-14T08:01:55Z
2022-10-14T06:03:03Z,42.805,6.029,13.3020,4.60106,2470.507,2022-10-14T08:04:58Z
2022-10-14T06:06:07Z,42.805,6.029,13.3041,4.60128,2470.53,2022-10-14T08:08:02Z
2022-10-14T06:09:10Z,42.805,6.029,13.3043,4.60125,2470.544,2022-10-14T08:11:05Z
2022-10-14T06:12:13Z,42.805,6.029,13.3025,4.60107,2470.567,2022-10-14T08:14:08Z
2022-10-14T06:15:16Z,42.805,6.029,13.3019,4.60097,2470.577,2022-10-14T08:17:11Z
2022-10-14T06:18:19Z,42.805,6.029,13.3023,4.60114,2470.577,2022-10-14T08:20:14Z
2022-10-14T06:21:22Z,42.805,6.029,13.3025,4.60088,2470.544,2022-10-14T08:23:17Z
2022-10-14T06:24:25Z,42.805,6.029,13.3025,4.60117,2470.516,2022-10-14T08:26:20Z
2022-10-14T06:27:28Z,42.805,6.029,13.3030,4.60091,2470.553,2022-10-14T08:29:23Z
2022-10-14T06:30:31Z,42.805,6.029,13.3029,4.60105,2470.567,2022-10-14T08:32:26Z
2022-10-14T06:33:34Z,42.805,6.029,13.3017,4.60088,2470.577,2022-10-14T08:35:29Z
2022-10-14T06:36:37Z,42.805,6.029,13.3019,4.60097,2470.591,2022-10-14T08:38:32Z
2022-10-14T06:39:40Z,42.805,6.029,13.3024,4.60102,2470.577,2022-10-14T08:41:35Z
2022-10-14T06:42:44Z,42.805,6.029,13.3026,4.60096,2470.591,2022-10-14T08:44:39Z
2022-10-14T06:45:47Z,42.805,6.029,13.3031,4.60110,2470.553,2022-10-14T08:47:42Z
2022-10-14T06:48:50Z,42.805,6.029,13.3023,4.60104,2470.624,2022-10-14T08:50:45Z
2022-10-14T06:51:53Z,42.805,6.029,13.3034,4.60122,2470.614,2022-10-14T08:53:48Z
2022-10-14T06:54:56Z,42.805,6.029,13.3026,4.60137,2470.577,2022-10-14T08:56:51Z
2022-10-14T06:57:59Z,42.805,6.029,13.3049,4.60117,2470.614,2022-10-14T08:59:54Z
2022-10-14T07:01:02Z,42.805,6.029,13.3043,4.60120,2470.577,2022-10-14T09:02:57Z
2022-10-14T07:04:05Z,42.805,6.029,13.3050,4.60117,2470.6,2022-10-14T09:06:00Z
2022-10-14T07:07:08Z,42.805,6.029,13.3024,4.60110,2470.6,2022-10-14T09:09:03Z
2022-10-14T07:10:11Z,42.805,6.029,13.3019,4.60104,2470.553,2022-10-14T09:12:06Z
2022-10-14T07:13:14Z,42.805,6.029,13.3020,4.60117,2470.614,2022-10-14T09:15:09Z
2022-10-14T07:16:17Z,42.805,6.029,13.3040,4.60137,2470.614,2022-10-14T09:18:12Z
2022-10-14T07:19:20Z,42.805,6.029,13.3027,4.60101,2470.6,2022-10-14T09:21:15Z
2022-10-14T07:22:23Z,42.805,6.029,13.3026,4.60094,2470.6,2022-10-14T09:24:19Z
2022-10-14T07:25:27Z,42.805,6.029,13.3021,4.60106,2470.624,2022-10-14T09:27:22Z
2022-10-14T07:28:30Z,42.805,6.029,13.3022,4.60114,2470.624,2022-10-14T09:30:25Z
2022-10-14T07:31:33Z,42.805,6.029,13.3025,4.60135,2470.624,2022-10-14T09:33:28Z
2022-10-14T07:34:36Z,42.805,6.029,13.3030,4.60110,2470.6,2022-10-14T09:36:31Z
2022-10-14T07:37:39Z,42.805,6.029,13.3058,4.60126,2470.67,2022-10-14T09:39:34Z
2022-10-14T07:40:42Z,42.805,6.029,13.3027,4.60093,2470.614,2022-10-14T09:42:37Z
2022-10-14T07:43:45Z,42.805,6.029,13.3022,4.60093,2470.624,2022-10-14T09:45:40Z
2022-10-14T07:46:48Z,42.805,6.029,13.3021,4.60089,2470.637,2022-10-14T09:48:43Z
2022-10-14T07:49:51Z,42.805,6.029,13.3020,4.60090,2470.646,2022-10-14T09:51:46Z
2022-10-14T07:52:54Z,42.805,6.029,13.3026,4.60096,2470.624,2022-10-14T09:54:49Z
2022-10-14T07:55:57Z,42.805,6.029,13.3036,4.60097,2470.624,2022-10-14T09:57:52Z
2022-10-14T07:59:00Z,42.805,6.029,13.3028,4.60086,2470.6,2022-10-14T10:00:55Z
2022-10-14T08:02:04Z,42.805,6.029,13.3036,4.60092,2470.646,2022-10-14T10:03:59Z
2022-10-14T08:05:07Z,42.805,6.029,13.3022,4.60093,2470.646,2022-10-14T10:07:02Z
2022-10-14T08:08:10Z,42.805,6.029,13.3032,4.60104,2470.646,2022-10-14T10:10:05Z
2022-10-14T08:11:13Z,42.805,6.029,13.3043,4.60099,2470.646,2022-10-14T10:13:08Z
2022-10-14T08:14:16Z,42.805,6.029,13.3021,4.60109,2470.67,2022-10-14T10:16:11Z
2022-10-14T08:17:19Z,42.805,6.029,13.3020,4.60104,2470.684,2022-10-14T10:19:14Z
2022-10-14T08:20:22Z,42.805,6.029,13.3025,4.60102,2470.67,2022-10-14T10:22:17Z
2022-10-14T08:23:25Z,42.805,6.029,13.3026,4.60096,2470.693,2022-10-14T10:25:20Z
2022-10-14T08:26:28Z,42.805,6.029,13.3021,4.60078,2470.67,2022-10-14T10:28:23Z
2022-10-14T08:29:31Z,42.805,6.029,13.3019,4.60093,2470.67,2022-10-14T10:31:26Z
2022-10-14T08:32:34Z,42.805,6.029,13.3022,4.60084,2470.646,2022-10-14T10:34:29Z
2022-10-14T08:35:37Z,42.805,6.029,13.3023,4.60079,2470.693,2022-10-14T10:37:32Z
2022-10-14T08:38:40Z,42.805,6.029,13.3027,4.60091,2470.646,2022-10-14T10:40:36Z
2022-10-14T08:41:44Z,42.805,6.029,13.3021,4.60083,2470.684,2022-10-14T10:43:39Z
2022-10-14T08:44:47Z,42.805,6.029,13.3022,4.60087,2470.684,2022-10-14T10:46:42Z
2022-10-14T08:47:50Z,42.805,6.029,13.3026,4.60104,2470.67,2022-10-14T10:49:45Z
2022-10-14T08:50:53Z,42.805,6.029,13.3019,4.60099,2470.684,2022-10-14T10:52:48Z
2022-10-14T08:53:56Z,42.805,6.029,13.3048,4.60102,2470.661,2022-10-14T10:55:51Z
2022-10-14T08:56:59Z,42.805,6.029,13.3020,4.60110,2470.693,2022-10-14T10:58:54Z
2022-10-14T09:00:02Z,42.805,6.029,13.3016,4.60084,2470.67,2022-10-14T11:01:57Z
2022-10-14T09:03:05Z,42.805,6.029,13.3031,4.60110,2470.646,2022-10-14T11:05:00Z
2022-10-14T09:06:08Z,42.805,6.029,13.3020,4.60086,2470.67,2022-10-14T11:08:03Z
2022-10-14T09:09:11Z,42.805,6.029,13.3022,4.60081,2470.707,2022-10-14T11:11:06Z
2022-10-14T09:12:14Z,42.805,6.029,13.3018,4.60088,2470.693,2022-10-14T11:14:09Z
2022-10-14T09:15:17Z,42.805,6.029,13.3021,4.60095,2470.684,2022-10-14T11:17:13Z
2022-10-14T09:18:21Z,42.805,6.029,13.3017,4.60094,2470.707,2022-10-14T11:20:16Z
2022-10-14T09:21:24Z,42.805,6.029,13.3026,4.60101,2470.67,2022-10-14T11:23:19Z
2022-10-14T09:24:27Z,42.805,6.029,13.3021,4.60094,2470.646,2022-10-14T11:26:22Z
2022-10-14T09:27:30Z,42.805,6.029,13.3029,4.60110,2470.684,2022-10-14T11:29:25Z
2022-10-14T09:30:33Z,42.805,6.029,13.3025,4.60092,2470.67,2022-10-14T11:32:28Z
2022-10-14T09:33:36Z,42.805,6.029,13.3030,4.60099,2470.684,2022-10-14T11:35:31Z
2022-10-14T09:36:39Z,42.805,6.029,13.3031,4.60134,2470.67,2022-10-14T11:38:34Z
2022-10-14T09:39:42Z,42.805,6.029,13.3024,4.60110,2470.661,2022-10-14T11:41:37Z
2022-10-14T09:42:45Z,42.805,6.029,13.3040,4.60109,2470.646,2022-10-14T11:44:40Z
2022-10-14T09:45:48Z,42.805,6.029,13.3037,4.60114,2470.684,2022-10-14T11:47:43Z
2022-10-14T09:48:51Z,42.805,6.029,13.3019,4.60094,2470.67,2022-10-14T11:50:46Z
2022-10-14T09:51:54Z,42.805,6.029,13.3014,4.60076,2470.67,2022-10-14T11:53:50Z
2022-10-14T09:54:58Z,42.805,6.029,13.3031,4.60102,2470.646,2022-10-14T11:56:53Z
2022-10-14T09:58:01Z,42.805,6.029,13.3026,4.60100,2470.646,2022-10-14T11:59:56Z
2022-10-14T10:01:04Z,42.805,6.029,13.3030,4.60102,2470.684,2022-10-14T12:02:59Z
2022-10-14T10:04:07Z,42.805,6.029,13.3021,4.60115,2470.646,2022-10-14T12:06:02Z
2022-10-14T10:07:10Z,42.805,6.029,13.3033,4.60096,2470.661,2022-10-14T12:09:05Z
2022-10-14T10:10:13Z,42.805,6.029,13.3025,4.60097,2470.661,2022-10-14T12:12:08Z
2022-10-14T10:13:16Z,42.805,6.029,13.3030,4.60117,2470.684,2022-10-14T12:15:11Z
2022-10-14T10:16:19Z,42.805,6.029,13.3044,4.60114,2470.646,2022-10-14T12:18:14Z
2022-10-14T10:19:22Z,42.805,6.029,13.3029,4.60088,2470.684,2022-10-14T12:21:17Z
2022-10-14T10:22:25Z,42.805,6.029,13.3031,4.60098,2470.646,2022-10-14T12:24:20Z
2022-10-14T10:25:28Z,42.805,6.029,13.3028,4.60125,2470.67,2022-10-14T12:27:23Z
2022-10-14T10:28:31Z,42.805,6.029,13.3026,4.60119,2470.646,2022-10-14T12:30:27Z
2022-10-14T10:31:35Z,42.805,6.029,13.3021,4.60077,2470.637,2022-10-14T12:33:30Z
2022-10-14T10:34:38Z,42.805,6.029,13.3018,4.60098,2470.646,2022-10-14T12:36:33Z
2022-10-14T10:37:41Z,42.805,6.029,13.3018,4.60077,2470.684,2022-10-14T12:39:36Z
2022-10-14T10:40:44Z,42.805,6.029,13.3018,4.60088,2470.646,2022-10-14T12:42:39Z
2022-10-14T10:43:47Z,42.805,6.029,13.3014,4.60104,2470.646,2022-10-14T12:45:42Z
2022-10-14T10:46:50Z,42.805,6.029,13.3015,4.60075,2470.67,2022-10-14T12:48:45Z
2022-10-14T10:49:53Z,42.805,6.029,13.3023,4.60076,2470.684,2022-10-14T12:51:48Z
2022-10-14T10:52:56Z,42.805,6.029,13.3024,4.60077,2470.646,2022-10-14T12:54:51Z
2022-10-14T10:55:59Z,42.805,6.029,13.3034,4.60105,2470.661,2022-10-14T12:57:54Z
2022-10-14T10:59:02Z,42.805,6.029,13.3021,4.60097,2470.646,2022-10-14T13:00:57Z
2022-10-14T11:02:05Z,42.805,6.029,13.3016,4.60076,2470.661,2022-10-14T13:04:00Z
2022-10-14T11:05:08Z,42.805,6.029,13.3015,4.60081,2470.646,2022-10-14T13:07:04Z
2022-10-14T11:08:12Z,42.805,6.029,13.3016,4.60077,2470.6,2022-10-14T13:10:07Z
2022-10-14T11:11:15Z,42.805,6.029,13.3021,4.60069,2470.646,2022-10-14T13:13:10Z
2022-10-14T11:14:18Z,42.805,6.029,13.3015,4.60072,2470.67,2022-10-14T13:16:13Z
2022-10-14T11:17:21Z,42.805,6.029,13.3019,4.60087,2470.624,2022-10-14T13:19:16Z
2022-10-14T11:20:24Z,42.805,6.029,13.3015,4.60095,2470.646,2022-10-14T13:22:19Z
2022-10-14T11:23:27Z,42.805,6.029,13.3021,4.60090,2470.624,2022-10-14T13:25:22Z
2022-10-14T11:26:30Z,42.805,6.029,13.3024,4.60082,2470.661,2022-10-14T13:28:25Z
2022-10-14T11:29:33Z,42.805,6.029,13.3019,4.60087,2470.637,2022-10-14T13:31:28Z
2022-10-14T11:32:36Z,42.805,6.029,13.3021,4.60087,2470.661,2022-10-14T13:34:31Z
2022-10-14T11:35:39Z,42.805,6.029,13.3017,4.60088,2470.624,2022-10-14T13:37:34Z
2022-10-14T11:38:42Z,42.805,6.029,13.3018,4.60072,2470.624,2022-10-14T13:40:37Z
2022-10-14T11:41:45Z,42.805,6.029,13.3021,4.60073,2470.6,2022-10-14T13:43:41Z
2022-10-14T11:44:49Z,42.805,6.029,13.3019,4.60088,2470.624,2022-10-14T13:46:44Z
2022-10-14T11:47:52Z,42.805,6.029,13.3024,4.60087,2470.6,2022-10-14T13:49:47Z
2022-10-14T11:50:55Z,42.805,6.029,13.3034,4.60094,2470.646,2022-10-14T13:52:50Z
2022-10-14T11:53:58Z,42.805,6.029,13.3028,4.60090,2470.637,2022-10-14T13:55:53Z
2022-10-14T11:57:01Z,42.805,6.029,13.3019,4.60084,2470.6,2022-10-14T13:58:56Z
2022-10-14T12:00:04Z,42.805,6.029,13.3021,4.60077,2470.624,2022-10-14T14:01:59Z
2022-10-14T12:03:07Z,42.805,6.029,13.3027,4.60079,2470.624,2022-10-14T14:05:02Z
2022-10-14T12:06:10Z,42.805,6.029,13.3033,4.60081,2470.614,2022-10-14T14:08:05Z
2022-10-14T12:09:13Z,42.805,6.029,13.3028,4.60112,2470.624,2022-10-14T14:11:08Z
2022-10-14T12:12:16Z,42.805,6.029,13.3022,4.60086,2470.637,2022-10-14T14:14:11Z
2022-10-14T12:15:19Z,42.805,6.029,13.3019,4.60079,2470.591,2022-10-14T14:17:14Z
2022-10-14T12:18:22Z,42.805,6.029,13.3033,4.60094,2470.577,2022-10-14T14:20:17Z
2022-10-14T12:21:26Z,42.805,6.029,13.3014,4.60074,2470.637,2022-10-14T14:23:21Z
2022-10-14T12:24:29Z,42.805,6.029,13.3027,4.60094,2470.6,2022-10-14T14:26:24Z
2022-10-14T12:27:32Z,42.805,6.029,13.3031,4.60096,2470.6,2022-10-14T14:29:27Z
2022-10-14T12:30:35Z,42.805,6.029,13.3021,4.60089,2470.586,2022-10-14T14:32:30Z
2022-10-14T12:33:38Z,42.805,6.029,13.3039,4.60110,2470.6,2022-10-14T14:35:33Z
2022-10-14T12:36:41Z,42.805,6.029,13.3028,4.60087,2470.6,2022-10-14T14:38:36Z
2022-10-14T12:39:44Z,42.805,6.029,13.3029,4.60104,2470.577,2022-10-14T14:41:39Z
2022-10-14T12:42:47Z,42.805,6.029,13.3033,4.60097,2470.6,2022-10-14T14:44:42Z
2022-10-14T12:45:50Z,42.805,6.029,13.3019,4.60074,2470.591,2022-10-14T14:47:45Z
2022-10-14T12:48:53Z,42.805,6.029,13.3015,4.60072,2470.6,2022-10-14T14:50:48Z
2022-10-14T12:51:56Z,42.805,6.029,13.3043,4.60076,2470.577,2022-10-14T14:53:51Z
2022-10-14T12:54:59Z,42.805,6.029,13.3025,4.60078,2470.6,2022-10-14T14:56:54Z
2022-10-14T12:58:03Z,42.805,6.029,13.3020,4.60073,2470.591,2022-10-14T14:59:58Z
2022-10-14T13:01:06Z,42.805,6.029,13.3037,4.60092,2470.577,2022-10-14T15:03:01Z
2022-10-14T13:04:09Z,42.805,6.029,13.3025,4.60096,2470.553,2022-10-14T15:06:04Z
2022-10-14T13:07:12Z,42.805,6.029,13.3018,4.60076,2470.577,2022-10-14T15:09:07Z
2022-10-14T13:10:15Z,42.805,6.029,13.3015,4.60075,2470.577,2022-10-14T15:12:10Z
2022-10-14T13:13:18Z,42.805,6.029,13.3021,4.60075,2470.553,2022-10-14T15:15:13Z
2022-10-14T13:16:21Z,42.805,6.029,13.3022,4.60077,2470.553,2022-10-14T15:18:16Z
2022-10-14T13:19:24Z,42.805,6.029,13.3021,4.60078,2470.577,2022-10-14T15:21:19Z
2022-10-14T13:22:27Z,42.805,6.029,13.3016,4.60095,2470.544,2022-10-14T15:24:22Z
2022-10-14T13:25:30Z,42.805,6.029,13.3018,4.60078,2470.553,2022-10-14T15:27:25Z
2022-10-14T13:28:33Z,42.805,6.029,13.3021,4.60074,2470.577,2022-10-14T15:30:28Z
2022-10-14T13:31:36Z,42.805,6.029,13.3029,4.60078,2470.577,2022-10-14T15:33:31Z
2022-10-14T13:34:40Z,42.805,6.029,13.3017,4.60072,2470.614,2022-10-14T15:36:35Z
2022-10-14T13:37:43Z,42.805,6.029,13.3023,4.60071,2470.553,2022-10-14T15:39:38Z
2022-10-14T13:40:46Z,42.805,6.029,13.3019,4.60072,2470.563,2022-10-14T15:42:41Z
2022-10-14T13:43:49Z,42.805,6.029,13.3019,4.60076,2470.567,2022-10-14T15:45:44Z
2022-10-14T13:46:52Z,42.805,6.029,13.3026,4.60073,2470.553,2022-10-14T15:48:47Z
2022-10-14T13:49:55Z,42.805,6.029,13.3019,4.60077,2470.553,2022-10-14T15:51:50Z
2022-10-14T13:52:58Z,42.805,6.029,13.3026,4.60079,2470.553,2022-10-14T15:54:53Z
2022-10-14T13:56:01Z,42.805,6.029,13.3021,4.60079,2470.577,2022-10-14T15:57:56Z
2022-10-14T13:59:04Z,42.805,6.029,13.3019,4.60084,2470.507,2022-10-14T16:00:59Z
2022-10-14T14:02:07Z,42.805,6.029,13.3015,4.60067,2470.553,2022-10-14T16:04:02Z
2022-10-14T14:05:10Z,42.805,6.029,13.3015,4.60075,2470.553,2022-10-14T16:07:05Z
2022-10-14T14:08:13Z,42.805,6.029,13.3021,4.60074,2470.553,2022-10-14T16:10:08Z
2022-10-14T14:11:16Z,42.805,6.029,13.3021,4.60074,2470.591,2022-10-14T16:13:12Z
2022-10-14T14:14:20Z,42.805,6.029,13.3019,4.60074,2470.544,2022-10-14T16:16:15Z
2022-10-14T14:17:23Z,42.805,6.029,13.3017,4.60072,2470.507,2022-10-14T16:19:18Z
2022-10-14T14:20:26Z,42.805,6.029,13.3017,4.60068,2470.507,2022-10-14T16:22:21Z
2022-10-14T14:23:29Z,42.805,6.029,13.3016,4.60075,2470.567,2022-10-14T16:25:24Z
2022-10-14T14:26:32Z,42.805,6.029,13.3020,4.60088,2470.53,2022-10-14T16:28:27Z
2022-10-14T14:29:35Z,42.805,6.029,13.3035,4.60079,2470.53,2022-10-14T16:31:30Z
2022-10-14T14:32:38Z,42.805,6.029,13.3020,4.60074,2470.53,2022-10-14T16:34:33Z
2022-10-14T14:35:41Z,42.805,6.029,13.3024,4.60080,2470.567,2022-10-14T16:37:36Z
2022-10-14T14:38:44Z,42.805,6.029,13.3016,4.60069,2470.53,2022-10-14T16:40:39Z
2022-10-14T14:41:47Z,42.805,6.029,13.3021,4.60077,2470.507,2022-10-14T16:43:42Z
2022-10-14T14:44:50Z,42.805,6.029,13.3021,4.60087,2470.52,2022-10-14T16:46:45Z
2022-10-14T14:47:53Z,42.805,6.029,13.3015,4.60075,2470.507,2022-10-14T16:49:49Z
2022-10-14T14:50:57Z,42.805,6.029,13.3019,4.60069,2470.553,2022-10-14T16:52:52Z
2022-10-14T14:54:00Z,42.805,6.029,13.3015,4.60072,2470.507,2022-10-14T16:55:55Z
2022-10-14T14:57:03Z,42.805,6.029,13.3014,4.60067,2470.544,2022-10-14T16:58:58Z
2022-10-14T15:00:06Z,42.805,6.029,13.3020,4.60070,2470.52,2022-10-14T17:02:01Z
2022-10-14T15:03:09Z,42.805,6.029,13.3019,4.60070,2470.507,2022-10-14T17:05:04Z